This demonstration page uses our WeatherBlox Daily Observations layout. Learn more.

39.92423, -83.80882

Hourly Observations for December 31, 2019

Temp ( °F °C ) Dew Point ( °F °C ) Humidity (%) Winds ( mph kmh ) Pressure ( in mb ) Visibility ( mi km ) Precip ( " mm )
12:56 am 00:56 Cloudy 36 2.2 30 -1.1 79 79 WSW 15 24 29.7 1006 10 16.0934 0 0
1:18 am 01:18 Cloudy with Light Rain 36 2 30 -1 81 81 SW 16 26 29.71 1006 10 16.0934 0.001 0.001
1:56 am 01:56 Cloudy with Light Rain 36 2.2 30 -1.1 79 79 WSW 18 30 29.7 1006 10 16.0934 0.001 0.001
2:56 am 02:56 Cloudy with Light Rain 36 2.2 30 -1.1 79 79 WSW 18 30 29.71 1006 10 16.0934 0.001 0.001
3:56 am 03:56 Cloudy 36 2.2 30 -1.1 79 79 WSW 20 31 29.7 1006 10 16.0934 0.001 0.001
4:56 am 04:56 Cloudy 35 1.7 28 -2.2 76 76 SW 16 26 29.7 1006 10 16.0934 0 0
5:05 am 05:05 Cloudy 36 2 28 -2 75 75 SW 20 31 29.71 1006 10 16.0934 0 0
5:29 am 05:29 Cloudy 36 2 28 -2 75 75 SW 23 37 29.71 1006 10 16.0934 0 0
5:56 am 05:56 Cloudy 35 1.7 28 -2.2 76 76 WSW 22 35 29.7 1006 10 16.0934 0 0
6:56 am 06:56 Cloudy 35 1.7 28 -2.2 76 76 SW 25 41 29.71 1006 10 16.0934 0 0
7:56 am 07:56 Cloudy 34 1.1 28 -2.2 79 79 SW 28 44 29.71 1006 10 16.0934 0 0
8:56 am 08:56 Cloudy 34 1.1 27 -2.8 76 76 WSW 24 39 29.73 1007 10 16.0934 0 0
9:56 am 09:56 Cloudy 33 0.6 27 -2.8 78 78 WSW 26 43 29.75 1007 10 16.0934 0 0
10:56 am 10:56 Cloudy 33 0.6 28 -2.2 82 82 WSW 26 43 29.77 1008 10 16.0934 0 0
11:56 am 11:56 Cloudy 32 0 27 -2.8 82 82 WSW 23 37 29.78 1008 10 16.0934 0.001 0.001
12:56 pm 12:56 Windy with Snow Likely 32 0 30 -1.1 92 92 WSW 23 37 29.79 1009 5 8.0467 0.001 0.001
1:56 pm 13:56 Cloudy 32 0 30 -1.1 92 92 WSW 18 30 29.78 1009 10 16.0934 0.001 0.001
2:56 pm 14:56 Windy with Snow Likely 32 0 30 -1.1 92 92 WSW 23 37 29.79 1009 4 6.43736 0.001 0.001
3:56 pm 15:56 Windy with Snow Likely 32 0 31 -0.6 96 96 WSW 21 33 29.8 1009 4 6.43736 0.001 0.001
4:56 pm 16:56 Cloudy with Light Snow 32 0 31 -0.6 96 96 WSW 16 26 29.82 1010 4 6.43736 0.001 0.001
5:51 pm 17:51 Cloudy 32 0 30 -1 93 93 W 20 31 29.86 1011 9 14.48406 0.001 0.001
5:56 pm 17:56 Cloudy 32 0 30 -1.1 92 92 W 17 28 29.85 1011 10 16.0934 0.001 0.001
6:56 pm 18:56 Cloudy 32 0 29 -1.7 88 88 W 21 33 29.86 1011 10 16.0934 0.001 0.001
7:56 pm 19:56 Cloudy 32 0 28 -2.2 85 85 W 22 35 29.86 1011 10 16.0934 0 0
8:56 pm 20:56 Cloudy 32 0 27 -2.8 82 82 WSW 21 33 29.87 1012 10 16.0934 0 0
9:56 pm 21:56 Cloudy 32 0 27 -2.8 82 82 W 16 26 29.87 1012 10 16.0934 0 0
10:56 pm 22:56 Cloudy 32 0 26 -3.3 79 79 W 23 37 29.87 1012 10 16.0934 0 0
11:15 pm 23:15 Cloudy 32 0 27 -3 80 80 W 20 31 29.89 1012 10 16.0934 0 0
11:48 pm 23:48 Cloudy 32 0 27 -3 80 80 W 17 28 29.89 1012 10 16.0934 0 0
11:56 pm 23:56 Cloudy 32 0 26 -3.3 79 79 W 17 28 29.88 1012 10 16.0934 0 0

Powered by AerisWeather